M I D A S
Marine Information and Data Acquisition System
Tripno 230 of the Zeeleeuw from 2002-03-26 07:41:28 to 2002-03-26 14:18:32
Back to CruiseResearch ActivitiesStationsMapUnderway DataData graphs

EquipmentUnitsComments
TimeDGPSUTC
LatitudeDGPSDM.mWGS84
LongitudeDGPSDM.mWGS84
SpeedMeteo Stationm/sRelative wind speed
DirectionMeteo StationdegRelative wind direction
TemperatureMeteo Stationdeg CelciusAir temperature
PressureMeteo StationPaAtmospheric pressure
HumidityMeteo Station%Relative humidity
Missing or incorrect values are displayed as -999
Metereological data collected by the RV Zeeleeuw from 2002-03-26 07:41:28 to 2002-03-26 14:18:32
                                                                                    Next 1000 lines
Time Latitude Longitude Speed Direction Temperature Pressure Humidity
2002-03-26 07:41:35 51°13.689 2°55.906 0.8 128 6.8 102810 79
2002-03-26 07:41:40 51°13.689 2°55.906 0.8 129 6.8 102810 79
2002-03-26 07:41:45 51°13.689 2°55.906 0.8 131 6.8 102810 79
2002-03-26 07:41:50 51°13.688 2°55.906 0.8 131 6.8 102810 79
2002-03-26 07:41:55 51°13.688 2°55.906 0.8 128 6.8 102810 79
2002-03-26 07:42:00 51°13.688 2°55.906 0.8 127 6.8 102810 79
2002-03-26 07:42:05 51°13.688 2°55.906 0.9 127 6.8 102810 79
2002-03-26 07:42:09 51°13.688 2°55.906 0.8 129 6.8 102810 79
2002-03-26 07:42:15 51°13.688 2°55.906 0.9 126 6.8 102810 79
2002-03-26 07:42:20 51°13.688 2°55.905 0.7 126 6.8 102810 79
2002-03-26 07:42:25 51°13.688 2°55.905 0.7 123 6.8 102810 79
2002-03-26 07:42:30 51°13.688 2°55.905 0.7 123 6.8 102810 79
2002-03-26 07:42:35 51°13.688 2°55.905 0.7 123 6.8 102810 79
2002-03-26 07:42:40 51°13.688 2°55.905 0.7 124 6.8 102810 79
2002-03-26 07:42:45 51°13.688 2°55.905 0.9 125 6.8 102810 79
2002-03-26 07:42:49 51°13.687 2°55.905 0.8 124 6.8 102810 79
2002-03-26 07:42:55 51°13.687 2°55.905 0.7 121 6.8 102810 79
2002-03-26 07:42:59 51°13.687 2°55.905 0.7 122 6.8 102810 79
2002-03-26 07:43:04 51°13.687 2°55.905 0.7 123 6.8 102810 79
2002-03-26 07:43:10 51°13.687 2°55.905 0.7 124 6.8 102810 79
2002-03-26 07:43:15 51°13.687 2°55.905 0.6 122 6.8 102810 79
2002-03-26 07:43:20 51°13.686 2°55.905 0.8 121 6.8 102810 79
2002-03-26 07:43:25 51°13.686 2°55.905 0.8 120 6.8 102810 79
2002-03-26 07:43:30 51°13.686 2°55.905 0.8 120 6.8 102810 79
2002-03-26 07:43:35 51°13.686 2°55.905 0.7 118 6.8 102810 79
2002-03-26 07:43:40 51°13.686 2°55.904 0.7 115 6.8 102810 79
2002-03-26 07:43:44 51°13.685 2°55.904 0.6 112 6.8 102810 79
2002-03-26 07:43:50 51°13.685 2°55.904 0.7 111 6.8 102810 79
2002-03-26 07:43:55 51°13.685 2°55.902 0.8 91 6.8 102810 79
2002-03-26 07:44:00 51°13.686 2°55.9 0.9 89 6.8 102810 79
2002-03-26 07:44:04 51°13.686 2°55.898 1.1 83 6.8 102810 79
2002-03-26 07:44:09 51°13.687 2°55.895 1.1 82 6.8 102810 79
2002-03-26 07:44:16 51°13.688 2°55.889 1.5 76 6.8 102810 79
2002-03-26 07:44:21 51°13.689 2°55.884 1.5 72 6.8 102810 79
2002-03-26 07:44:26 51°13.69 2°55.878 1.6 71 6.8 102810 79
2002-03-26 07:44:31 51°13.691 2°55.872 1.7 71 6.8 102810 79
2002-03-26 07:44:36 51°13.692 2°55.865 2 64 6.8 102810 79
2002-03-26 07:44:40 51°13.693 2°55.859 2.1 67 6.8 102810 79
2002-03-26 07:44:46 51°13.694 2°55.851 1.6 67 6.8 102810 79
2002-03-26 07:44:51 51°13.695 2°55.844 1.8 63 6.8 102810 79
2002-03-26 07:44:56 51°13.695 2°55.838 1.7 64 6.8 102810 79
2002-03-26 07:45:01 51°13.696 2°55.831 1.5 63 6.8 102810 79
2002-03-26 07:45:05 51°13.696 2°55.825 1.6 59 6.8 102810 79
2002-03-26 07:45:10 51°13.697 2°55.818 1.6 59 6.8 102810 79
2002-03-26 07:45:15 51°13.698 2°55.812 1.7 63 6.8 102810 79
2002-03-26 07:45:21 51°13.698 2°55.803 1.6 63 6.8 102810 79
2002-03-26 07:45:26 51°13.699 2°55.796 1.7 63 6.8 102810 79
2002-03-26 07:45:31 51°13.699 2°55.788 1.9 56 6.8 102810 79
2002-03-26 07:45:36 51°13.699 2°55.781 1.8 53 6.8 102810 79
2002-03-26 07:45:40 51°13.699 2°55.775 1.7 54 6.8 102810 79
2002-03-26 07:45:46 51°13.698 2°55.767 1.9 54 6.8 102810 79
2002-03-26 07:45:51 51°13.698 2°55.76 1.7 52 6.8 102810 79
2002-03-26 07:45:56 51°13.697 2°55.754 1.6 60 6.8 102810 79
2002-03-26 07:46:00 51°13.697 2°55.749 1.6 63 6.8 102810 79
2002-03-26 07:46:05 51°13.696 2°55.743 1.8 55 6.8 102810 79
2002-03-26 07:46:10 51°13.696 2°55.738 1.8 55 6.8 102810 79
2002-03-26 07:46:14 51°13.695 2°55.733 1.8 57 6.8 102810 79
2002-03-26 07:46:19 51°13.694 2°55.728 1.7 57 6.8 102810 79
2002-03-26 07:46:25 51°13.694 2°55.722 1.7 58 6.8 102810 79
2002-03-26 07:46:30 51°13.693 2°55.718 1.8 58 6.8 102810 79
2002-03-26 07:46:34 51°13.692 2°55.714 1.4 59 6.8 102810 79
2002-03-26 07:46:39 51°13.692 2°55.712 1 58 6.8 102810 79
2002-03-26 07:46:45 51°13.693 2°55.711 0.3 75 6.8 102810 79
2002-03-26 07:46:50 51°13.695 2°55.712 0.2 118 6.8 102810 79
2002-03-26 07:46:55 51°13.697 2°55.714 0.5 215 6.8 102810 79
2002-03-26 07:47:00 51°13.7 2°55.716 0.5 194 6.8 102810 79
2002-03-26 07:47:05 51°13.704 2°55.719 1.2 229 6.8 102810 79
2002-03-26 07:47:10 51°13.71 2°55.72 1.3 226 6.8 102810 79
2002-03-26 07:47:15 51°13.715 2°55.72 1.5 225 6.8 102810 79
2002-03-26 07:47:20 51°13.721 2°55.719 1.6 234 6.8 102810 79
2002-03-26 07:47:25 51°13.727 2°55.717 1.8 239 6.8 102810 79
2002-03-26 07:47:30 51°13.733 2°55.715 1.9 239 6.8 102810 79
2002-03-26 07:47:35 51°13.739 2°55.712 2.1 239 6.8 102810 79
2002-03-26 07:47:40 51°13.746 2°55.709 2.1 238 6.8 102810 79
2002-03-26 07:47:45 51°13.752 2°55.704 2.1 235 6.8 102810 79
2002-03-26 07:47:50 51°13.76 2°55.7 2.3 234 6.8 102810 79
2002-03-26 07:47:55 51°13.767 2°55.695 2.4 237 6.8 102810 79
2002-03-26 07:47:59 51°13.772 2°55.691 2.3 235 6.8 102810 79
2002-03-26 07:48:05 51°13.781 2°55.685 2.5 233 6.8 102810 79
2002-03-26 07:48:10 51°13.789 2°55.679 2.4 231 6.8 102810 79
2002-03-26 07:48:15 51°13.797 2°55.673 2.6 229 6.8 102810 79
2002-03-26 07:48:20 51°13.805 2°55.667 2.5 229 6.8 102810 79
2002-03-26 07:48:25 51°13.812 2°55.66 2.7 230 6.8 102810 79
2002-03-26 07:48:30 51°13.821 2°55.653 2.9 231 6.9 102810 79
2002-03-26 07:48:35 51°13.829 2°55.646 2.7 232 6.9 102810 79
2002-03-26 07:48:40 51°13.837 2°55.639 2.8 237 6.8 102810 79
2002-03-26 07:48:45 51°13.846 2°55.632 3.3 234 6.8 102810 79
2002-03-26 07:48:49 51°13.854 2°55.627 3.2 235 6.9 102810 79
2002-03-26 07:48:55 51°13.865 2°55.618 3.9 234 6.9 102810 79
2002-03-26 07:49:00 51°13.874 2°55.61 3.7 239 6.9 102810 79
2002-03-26 07:49:05 51°13.884 2°55.602 4.5 235 6.9 102810 79
2002-03-26 07:49:10 51°13.894 2°55.594 4.3 240 6.9 102810 79
2002-03-26 07:49:15 51°13.904 2°55.587 4.5 239 6.9 102810 79
2002-03-26 07:49:19 51°13.913 2°55.58 4.7 238 6.9 102810 79
2002-03-26 07:49:25 51°13.926 2°55.57 5.2 238 6.9 102810 79
2002-03-26 07:49:30 51°13.938 2°55.561 5.2 238 6.9 102810 79
2002-03-26 07:49:35 51°13.95 2°55.552 5.5 240 6.9 102810 79
2002-03-26 07:49:40 51°13.962 2°55.543 5.2 240 6.9 102810 79
2002-03-26 07:49:45 51°13.974 2°55.534 5.1 238 6.9 102810 79
2002-03-26 07:49:50 51°13.986 2°55.526 5.1 238 6.9 102810 78
2002-03-26 07:49:55 51°13.997 2°55.517 5.1 238 6.9 102810 78
2002-03-26 07:50:00 51°14.008 2°55.51 5.3 238 6.9 102810 78
2002-03-26 07:50:05 51°14.019 2°55.502 5.1 238 6.9 102810 78
2002-03-26 07:50:10 51°14.029 2°55.495 5.1 235 7 102810 78
2002-03-26 07:50:15 51°14.04 2°55.488 4.6 240 7 102810 78
2002-03-26 07:50:20 51°14.049 2°55.481 4.6 239 7 102810 78
2002-03-26 07:50:25 51°14.059 2°55.474 4.6 238 7 102810 78
2002-03-26 07:50:30 51°14.069 2°55.467 4.6 238 7 102810 78
2002-03-26 07:50:35 51°14.078 2°55.46 4.7 240 7 102810 78
2002-03-26 07:50:40 51°14.087 2°55.453 4.8 240 7 102810 78
2002-03-26 07:50:45 51°14.097 2°55.446 4.5 239 7 102810 78
2002-03-26 07:50:50 51°14.106 2°55.439 4.7 236 7 102810 77
2002-03-26 07:50:55 51°14.116 2°55.431 5 241 7 102810 77
2002-03-26 07:51:00 51°14.125 2°55.424 4.9 240 7 102810 77
2002-03-26 07:51:05 51°14.135 2°55.415 5.1 239 7 102810 77
2002-03-26 07:51:10 51°14.145 2°55.407 5.2 241 7.1 102810 77
2002-03-26 07:51:15 51°14.156 2°55.397 5.4 237 7.1 102810 77
2002-03-26 07:51:20 51°14.166 2°55.387 5.3 240 7.1 102810 77
2002-03-26 07:51:25 51°14.177 2°55.376 5.7 238 7.1 102810 77
2002-03-26 07:51:30 51°14.188 2°55.364 6 238 7.1 102810 77
2002-03-26 07:51:35 51°14.199 2°55.352 5.9 238 7.1 102810 77
2002-03-26 07:51:40 51°14.21 2°55.339 5.6 237 7.1 102810 77
2002-03-26 07:51:45 51°14.22 2°55.325 5.6 235 7.1 102810 77
2002-03-26 07:51:50 51°14.231 2°55.311 5.4 239 7.1 102810 76
2002-03-26 07:51:55 51°14.241 2°55.296 6.2 236 7.1 102810 76
2002-03-26 07:52:00 51°14.252 2°55.281 5.9 236 7.1 102810 76
2002-03-26 07:52:05 51°14.262 2°55.265 6 235 7.1 102810 76
2002-03-26 07:52:10 51°14.272 2°55.249 5.8 235 7.1 102810 76
2002-03-26 07:52:15 51°14.282 2°55.232 6.4 235 7.1 102810 76
2002-03-26 07:52:20 51°14.291 2°55.215 6.2 235 7.2 102810 76
2002-03-26 07:52:25 51°14.3 2°55.197 5.8 235 7.2 102810 76
2002-03-26 07:52:29 51°14.307 2°55.182 6.3 237 7.2 102810 76
2002-03-26 07:52:35 51°14.317 2°55.159 6.4 236 7.2 102810 76
2002-03-26 07:52:40 51°14.325 2°55.14 6.2 237 7.2 102810 76
2002-03-26 07:52:45 51°14.333 2°55.121 6.1 237 7.2 102810 76
2002-03-26 07:52:49 51°14.34 2°55.106 6.1 237 7.2 102810 76
2002-03-26 07:52:55 51°14.35 2°55.083 6 238 7.2 102810 76
2002-03-26 07:53:00 51°14.36 2°55.065 6.1 238 7.2 102810 75
2002-03-26 07:53:05 51°14.37 2°55.049 6.5 240 7.2 102810 75
2002-03-26 07:53:10 51°14.382 2°55.033 6.1 237 7.2 102800 75
2002-03-26 07:53:15 51°14.393 2°55.018 6.5 239 7.2 102800 75
2002-03-26 07:53:20 51°14.406 2°55.004 6 238 7.2 102810 75
2002-03-26 07:53:25 51°14.418 2°54.99 6.3 240 7.2 102810 75
2002-03-26 07:53:30 51°14.43 2°54.975 6 239 7.2 102810 75
2002-03-26 07:53:35 51°14.443 2°54.962 6.4 238 7.2 102810 75
2002-03-26 07:53:40 51°14.456 2°54.948 6.1 237 7.2 102810 75
2002-03-26 07:53:45 51°14.469 2°54.934 6.7 236 7.2 102810 75
2002-03-26 07:53:49 51°14.479 2°54.923 6.3 240 7.2 102810 75
2002-03-26 07:53:55 51°14.494 2°54.906 6.8 236 7.2 102810 75
2002-03-26 07:54:00 51°14.507 2°54.892 6.3 237 7.2 102810 75
2002-03-26 07:54:05 51°14.52 2°54.877 6.6 238 7.2 102810 75
2002-03-26 07:54:10 51°14.533 2°54.863 6.6 239 7.2 102810 75
2002-03-26 07:54:15 51°14.545 2°54.849 6.3 240 7.2 102810 75
2002-03-26 07:54:20 51°14.559 2°54.834 6.9 237 7.2 102800 75
2002-03-26 07:54:25 51°14.572 2°54.819 6.4 237 7.2 102800 75
2002-03-26 07:54:30 51°14.585 2°54.805 6.5 239 7.3 102810 75
2002-03-26 07:54:35 51°14.598 2°54.79 6.3 238 7.3 102810 75
2002-03-26 07:54:40 51°14.611 2°54.776 6.6 238 7.3 102800 75
2002-03-26 07:54:45 51°14.625 2°54.761 7 238 7.3 102800 75
2002-03-26 07:54:50 51°14.638 2°54.746 6.5 237 7.3 102810 75
2002-03-26 07:54:55 51°14.652 2°54.732 6.4 236 7.3 102810 75
2002-03-26 07:55:00 51°14.665 2°54.717 6.1 239 7.3 102800 75
2002-03-26 07:55:05 51°14.679 2°54.702 6.7 238 7.3 102800 75
2002-03-26 07:55:10 51°14.692 2°54.687 6.5 237 7.3 102800 75
2002-03-26 07:55:15 51°14.705 2°54.672 6.7 237 7.3 102800 75
2002-03-26 07:55:20 51°14.719 2°54.658 6.6 238 7.3 102800 75
2002-03-26 07:55:25 51°14.732 2°54.643 6 239 7.3 102800 75
2002-03-26 07:55:30 51°14.746 2°54.629 5.9 237 7.3 102810 75
2002-03-26 07:55:35 51°14.76 2°54.616 6.3 239 7.3 102810 75
2002-03-26 07:55:40 51°14.775 2°54.603 6.5 239 7.3 102810 75
2002-03-26 07:55:45 51°14.789 2°54.591 6.5 237 7.3 102810 75
2002-03-26 07:55:50 51°14.804 2°54.578 6.2 237 7.3 102810 75
2002-03-26 07:55:55 51°14.818 2°54.567 6.6 237 7.3 102810 75
2002-03-26 07:56:00 51°14.833 2°54.555 6.5 236 7.3 102810 75
2002-03-26 07:56:05 51°14.848 2°54.543 6.3 235 7.3 102810 75
2002-03-26 07:56:10 51°14.862 2°54.531 6.2 238 7.3 102810 75
2002-03-26 07:56:15 51°14.877 2°54.519 5.8 234 7.3 102810 75
2002-03-26 07:56:20 51°14.892 2°54.507 6 237 7.3 102810 75
2002-03-26 07:56:25 51°14.906 2°54.494 6 235 7.3 102810 75
2002-03-26 07:56:30 51°14.921 2°54.482 6 238 7.3 102810 75
2002-03-26 07:56:35 51°14.935 2°54.469 6.3 233 7.3 102810 75
2002-03-26 07:56:39 51°14.947 2°54.459 6.4 236 7.3 102810 75
2002-03-26 07:56:44 51°14.961 2°54.446 6.1 233 7.3 102810 75
2002-03-26 07:56:49 51°14.976 2°54.434 6 237 7.3 102810 74
2002-03-26 07:56:55 51°14.992 2°54.418 6.5 232 7.3 102810 74
2002-03-26 07:57:00 51°15.007 2°54.405 6.5 236 7.3 102810 74
2002-03-26 07:57:05 51°15.021 2°54.391 5.8 230 7.3 102810 74
2002-03-26 07:57:10 51°15.036 2°54.379 6.2 239 7.3 102810 74
2002-03-26 07:57:15 51°15.051 2°54.365 6 229 7.3 102810 74
2002-03-26 07:57:19 51°15.063 2°54.356 6.2 231 7.3 102810 74
2002-03-26 07:57:25 51°15.081 2°54.339 6 227 7.3 102810 74
2002-03-26 07:57:30 51°15.097 2°54.327 6 233 7.3 102810 74
2002-03-26 07:57:35 51°15.111 2°54.312 6.2 229 7.3 102810 74
2002-03-26 07:57:40 51°15.127 2°54.3 6 228 7.3 102810 74
2002-03-26 07:57:45 51°15.142 2°54.285 6.4 230 7.3 102810 74
2002-03-26 07:57:50 51°15.158 2°54.273 6.9 228 7.3 102810 74
2002-03-26 07:57:54 51°15.17 2°54.26 6.9 229 7.3 102810 74
2002-03-26 07:58:00 51°15.19 2°54.245 6.5 229 7.3 102800 74
2002-03-26 07:58:05 51°15.205 2°54.228 6.8 233 7.3 102800 74
2002-03-26 07:58:10 51°15.221 2°54.215 6.6 227 7.3 102800 74
2002-03-26 07:58:15 51°15.237 2°54.199 7 231 7.3 102800 74
2002-03-26 07:58:20 51°15.253 2°54.185 6.6 229 7.3 102810 74
2002-03-26 07:58:25 51°15.269 2°54.169 7.1 233 7.3 102810 74
2002-03-26 07:58:30 51°15.286 2°54.156 6.7 227 7.3 102800 74
2002-03-26 07:58:35 51°15.302 2°54.14 6.5 234 7.3 102800 74
2002-03-26 07:58:40 51°15.318 2°54.127 6.9 228 7.3 102800 74
2002-03-26 07:58:45 51°15.334 2°54.111 6.6 234 7.3 102800 74
2002-03-26 07:58:50 51°15.351 2°54.097 6.9 227 7.3 102810 74
2002-03-26 07:58:55 51°15.367 2°54.081 7 236 7.3 102810 74
2002-03-26 07:59:00 51°15.383 2°54.067 7.1 233 7.3 102800 74
2002-03-26 07:59:04 51°15.397 2°54.056 6.6 236 7.3 102800 74
2002-03-26 07:59:10 51°15.416 2°54.038 7 230 7.3 102800 74
2002-03-26 07:59:15 51°15.433 2°54.023 6.7 237 7.3 102800 74
2002-03-26 07:59:20 51°15.449 2°54.009 6.8 229 7.3 102800 74
2002-03-26 07:59:25 51°15.466 2°53.994 6.7 239 7.3 102800 74
2002-03-26 07:59:30 51°15.482 2°53.979 6.7 230 7.3 102810 73
2002-03-26 07:59:35 51°15.499 2°53.965 6.3 238 7.3 102810 73
2002-03-26 07:59:40 51°15.515 2°53.949 6.7 233 7.3 102810 73
2002-03-26 07:59:44 51°15.529 2°53.939 6.6 239 7.3 102810 73
2002-03-26 07:59:50 51°15.548 2°53.92 6.8 233 7.3 102810 73
2002-03-26 07:59:55 51°15.565 2°53.906 7.1 240 7.3 102810 73
2002-03-26 08:00:00 51°15.581 2°53.89 6.5 235 7.3 102810 73
2002-03-26 08:00:05 51°15.598 2°53.877 7 237 7.3 102810 73
2002-03-26 08:00:09 51°15.61 2°53.863 6 228 7.3 102800 73
2002-03-26 08:00:15 51°15.63 2°53.846 6.3 238 7.3 102800 73
2002-03-26 08:00:20 51°15.646 2°53.829 6.5 238 7.3 102810 73
2002-03-26 08:00:25 51°15.663 2°53.816 6.7 238 7.3 102810 73
2002-03-26 08:00:30 51°15.679 2°53.799 6.1 228 7.3 102810 73
2002-03-26 08:00:35 51°15.696 2°53.786 6.7 239 7.3 102810 73
2002-03-26 08:00:40 51°15.711 2°53.768 6.5 240 7.3 102810 74
2002-03-26 08:00:45 51°15.729 2°53.756 6.1 237 7.3 102810 74
2002-03-26 08:00:49 51°15.741 2°53.742 6.2 238 7.3 102810 74
2002-03-26 08:00:55 51°15.761 2°53.726 6.1 236 7.3 102810 74
2002-03-26 08:01:00 51°15.777 2°53.709 6.3 227 7.4 102810 74
2002-03-26 08:01:05 51°15.794 2°53.696 6.1 232 7.4 102810 74
2002-03-26 08:01:10 51°15.81 2°53.679 6.6 237 7.4 102810 74
2002-03-26 08:01:15 51°15.827 2°53.666 6.5 229 7.4 102810 74
2002-03-26 08:01:20 51°15.843 2°53.65 6.6 236 7.4 102810 74
2002-03-26 08:01:25 51°15.859 2°53.635 6.1 228 7.4 102810 74
2002-03-26 08:01:30 51°15.876 2°53.62 5.9 237 7.4 102810 74
2002-03-26 08:01:35 51°15.892 2°53.605 6.2 226 7.4 102810 74
2002-03-26 08:01:40 51°15.909 2°53.59 6.2 233 7.4 102810 74
2002-03-26 08:01:45 51°15.925 2°53.575 6.3 226 7.4 102810 74
2002-03-26 08:01:50 51°15.942 2°53.56 6 234 7.4 102810 74
2002-03-26 08:01:55 51°15.957 2°53.544 6.4 224 7.4 102810 74
2002-03-26 08:02:00 51°15.974 2°53.53 6.3 232 7.4 102810 74
2002-03-26 08:02:05 51°15.99 2°53.514 6.1 224 7.4 102810 74
2002-03-26 08:02:10 51°16.007 2°53.5 6.2 227 7.4 102810 74
2002-03-26 08:02:15 51°16.023 2°53.483 6.2 225 7.4 102810 74
2002-03-26 08:02:20 51°16.04 2°53.47 6.1 226 7.4 102810 74
2002-03-26 08:02:25 51°16.055 2°53.453 5.8 223 7.4 102810 74
2002-03-26 08:02:30 51°16.072 2°53.44 6 224 7.4 102810 74
2002-03-26 08:02:35 51°16.088 2°53.422 6.4 227 7.4 102810 74
2002-03-26 08:02:40 51°16.105 2°53.409 6.6 227 7.4 102810 74
2002-03-26 08:02:45 51°16.121 2°53.392 6.5 224 7.4 102810 74
2002-03-26 08:02:50 51°16.138 2°53.379 6 223 7.4 102810 74
2002-03-26 08:02:55 51°16.154 2°53.362 6 228 7.4 102810 74
2002-03-26 08:03:00 51°16.17 2°53.349 5.7 225 7.4 102810 74
2002-03-26 08:03:05 51°16.187 2°53.332 5.9 231 7.4 102810 74
2002-03-26 08:03:10 51°16.203 2°53.319 6 225 7.4 102810 73
2002-03-26 08:03:15 51°16.22 2°53.303 5.9 229 7.4 102810 73
2002-03-26 08:03:20 51°16.236 2°53.288 6.1 224 7.4 102810 73
2002-03-26 08:03:25 51°16.252 2°53.273 6.2 232 7.4 102810 73
2002-03-26 08:03:30 51°16.269 2°53.259 5.8 224 7.4 102810 73
2002-03-26 08:03:35 51°16.285 2°53.244 5.6 233 7.4 102810 73
2002-03-26 08:03:40 51°16.301 2°53.229 6.1 223 7.4 102810 74
2002-03-26 08:03:45 51°16.318 2°53.216 6.2 232 7.4 102810 74
2002-03-26 08:03:50 51°16.334 2°53.2 6.2 225 7.4 102810 74
2002-03-26 08:03:55 51°16.351 2°53.187 6.2 235 7.4 102810 74
2002-03-26 08:04:00 51°16.366 2°53.172 5.8 228 7.4 102810 74
2002-03-26 08:04:05 51°16.383 2°53.159 5.7 233 7.4 102810 74
2002-03-26 08:04:09 51°16.395 2°53.145 6.2 229 7.4 102810 74
2002-03-26 08:04:15 51°16.416 2°53.131 5.4 233 7.4 102810 74
2002-03-26 08:04:19 51°16.428 2°53.117 5.5 230 7.4 102800 73
2002-03-26 08:04:25 51°16.448 2°53.102 5.3 235 7.4 102800 73
2002-03-26 08:04:29 51°16.46 2°53.089 5.5 234 7.4 102810 72
2002-03-26 08:04:35 51°16.479 2°53.073 5.7 231 7.4 102810 72
2002-03-26 08:04:40 51°16.495 2°53.057 5.7 237 7.4 102810 72
2002-03-26 08:04:45 51°16.511 2°53.045 6 229 7.4 102810 72
2002-03-26 08:04:49 51°16.524 2°53.032 6.1 234 7.4 102810 73
2002-03-26 08:04:55 51°16.543 2°53.016 5.8 226 7.4 102810 73
2002-03-26 08:05:00 51°16.559 2°53.001 5.5 235 7.4 102810 73
2002-03-26 08:05:05 51°16.575 2°52.987 5.2 226 7.4 102810 73
2002-03-26 08:05:10 51°16.591 2°52.973 5.9 234 7.4 102810 73
2002-03-26 08:05:15 51°16.607 2°52.958 5.2 223 7.4 102810 73
2002-03-26 08:05:20 51°16.623 2°52.944 5.6 233 7.4 102810 73
2002-03-26 08:05:24 51°16.635 2°52.931 5.4 219 7.4 102810 73
2002-03-26 08:05:29 51°16.652 2°52.919 5.3 226 7.4 102810 73
2002-03-26 08:05:35 51°16.67 2°52.9 5.7 221 7.4 102810 73
2002-03-26 08:05:39 51°16.684 2°52.89 5.9 226 7.4 102810 73
2002-03-26 08:05:45 51°16.702 2°52.871 5.9 219 7.4 102810 73
2002-03-26 08:05:50 51°16.719 2°52.859 6.1 222 7.4 102810 73
2002-03-26 08:05:55 51°16.734 2°52.842 5.5 220 7.4 102810 73
2002-03-26 08:06:00 51°16.751 2°52.83 5.5 221 7.4 102810 73
2002-03-26 08:06:05 51°16.767 2°52.815 5.4 222 7.4 102810 73
2002-03-26 08:06:10 51°16.783 2°52.803 5.7 221 7.4 102810 72
2002-03-26 08:06:15 51°16.798 2°52.787 5.2 221 7.4 102810 72
2002-03-26 08:06:20 51°16.815 2°52.775 5.5 219 7.4 102810 72
2002-03-26 08:06:25 51°16.83 2°52.759 5.4 225 7.4 102810 72
2002-03-26 08:06:30 51°16.846 2°52.747 5.5 221 7.4 102810 72
2002-03-26 08:06:35 51°16.862 2°52.733 5.7 226 7.4 102810 72
2002-03-26 08:06:40 51°16.878 2°52.721 5.8 222 7.4 102810 72
2002-03-26 08:06:45 51°16.894 2°52.707 5.5 228 7.4 102810 72
2002-03-26 08:06:50 51°16.911 2°52.695 5.8 221 7.4 102810 71
2002-03-26 08:06:55 51°16.927 2°52.683 5.8 230 7.4 102810 71
2002-03-26 08:07:00 51°16.943 2°52.67 5.7 223 7.4 102810 72
2002-03-26 08:07:05 51°16.96 2°52.658 5.8 232 7.4 102810 72
2002-03-26 08:07:09 51°16.973 2°52.648 5.2 223 7.4 102810 72
2002-03-26 08:07:15 51°16.994 2°52.635 5 233 7.4 102810 72
2002-03-26 08:07:19 51°17.007 2°52.625 5.6 225 7.4 102810 71
2002-03-26 08:07:25 51°17.027 2°52.613 5.9 231 7.4 102810 71
2002-03-26 08:07:30 51°17.044 2°52.6 5.8 135 7.4 102810 71
2002-03-26 08:07:35 51°17.061 2°52.59 5.6 233 7.4 102810 71
2002-03-26 08:07:40 51°17.077 2°52.578 5.2 229 7.5 102810 71
2002-03-26 08:07:45 51°17.095 2°52.568 5 233 7.5 102810 71
2002-03-26 08:07:50 51°17.111 2°52.555 4.9 228 7.5 102800 72
2002-03-26 08:07:55 51°17.128 2°52.546 5.3 228 7.5 102800 72
2002-03-26 08:08:00 51°17.144 2°52.533 5.2 228 7.5 102810 73
2002-03-26 08:08:05 51°17.162 2°52.523 5.4 230 7.5 102810 73
2002-03-26 08:08:10 51°17.178 2°52.51 5.1 232 7.5 102810 73
2002-03-26 08:08:15 51°17.195 2°52.5 5.4 230 7.5 102810 73
2002-03-26 08:08:20 51°17.211 2°52.487 5.5 233 7.5 102810 73
2002-03-26 08:08:25 51°17.228 2°52.476 5.5 226 7.5 102810 73
2002-03-26 08:08:30 51°17.245 2°52.463 5.1 233 7.5 102810 72
2002-03-26 08:08:35 51°17.262 2°52.452 5.5 225 7.5 102810 72
2002-03-26 08:08:40 51°17.279 2°52.439 5 232 7.5 102810 72
2002-03-26 08:08:45 51°17.295 2°52.429 5.4 225 7.5 102810 72
2002-03-26 08:08:50 51°17.313 2°52.418 5.1 229 7.5 102810 72
2002-03-26 08:08:55 51°17.33 2°52.409 5 224 7.5 102810 72
2002-03-26 08:08:59 51°17.344 2°52.403 5.4 227 7.5 102810 72
2002-03-26 08:09:04 51°17.361 2°52.395 4.9 221 7.5 102810 72
2002-03-26 08:09:10 51°17.383 2°52.387 4.9 225 7.5 102810 72
2002-03-26 08:09:15 51°17.401 2°52.381 5.6 218 7.5 102810 72
2002-03-26 08:09:20 51°17.419 2°52.377 5.2 225 7.5 102810 72
2002-03-26 08:09:25 51°17.437 2°52.373 5.7 216 7.5 102810 72
2002-03-26 08:09:29 51°17.452 2°52.371 5.2 222 7.5 102810 72
2002-03-26 08:09:35 51°17.473 2°52.367 5.9 212 7.5 102810 72
2002-03-26 08:09:40 51°17.491 2°52.366 5.9 219 7.5 102810 73
2002-03-26 08:09:45 51°17.51 2°52.362 5.6 211 7.5 102810 73
2002-03-26 08:09:50 51°17.528 2°52.362 6.1 214 7.5 102810 72
2002-03-26 08:09:55 51°17.546 2°52.358 5.5 211 7.5 102810 72
2002-03-26 08:10:00 51°17.564 2°52.358 5.3 213 7.5 102800 73
2002-03-26 08:10:05 51°17.582 2°52.352 5.4 215 7.5 102800 73
2002-03-26 08:10:10 51°17.6 2°52.352 6 214 7.5 102800 72
2002-03-26 08:10:15 51°17.618 2°52.347 5.7 217 7.5 102800 72
2002-03-26 08:10:19 51°17.633 2°52.346 6.2 210 7.5 102800 72
2002-03-26 08:10:25 51°17.655 2°52.341 5.9 218 7.5 102800 72
2002-03-26 08:10:30 51°17.673 2°52.34 5.8 213 7.5 102810 72
2002-03-26 08:10:35 51°17.691 2°52.336 6 220 7.5 102810 72
2002-03-26 08:10:40 51°17.709 2°52.335 5.7 215 7.5 102800 72
2002-03-26 08:10:44 51°17.723 2°52.333 5.4 221 7.5 102800 72
2002-03-26 08:10:50 51°17.745 2°52.33 5.3 215 7.5 102800 72
2002-03-26 08:10:55 51°17.763 2°52.329 5.2 223 7.5 102800 72
2002-03-26 08:11:00 51°17.781 2°52.327 5.3 216 7.5 102800 72
2002-03-26 08:11:05 51°17.799 2°52.326 5.5 224 7.5 102800 72
2002-03-26 08:11:10 51°17.818 2°52.324 5.5 215 7.5 102800 72
2002-03-26 08:11:15 51°17.836 2°52.324 5.5 224 7.5 102800 72
2002-03-26 08:11:20 51°17.854 2°52.321 5.8 218 7.5 102800 72
2002-03-26 08:11:25 51°17.872 2°52.322 5.6 223 7.5 102800 72
2002-03-26 08:11:30 51°17.891 2°52.319 5.8 221 7.5 102800 72
2002-03-26 08:11:35 51°17.909 2°52.32 5.4 224 7.5 102800 72
2002-03-26 08:11:40 51°17.927 2°52.317 5.4 221 7.5 102800 72
2002-03-26 08:11:44 51°17.941 2°52.317 5.7 221 7.5 102800 72
2002-03-26 08:11:50 51°17.963 2°52.314 5.2 221 7.5 102800 72
2002-03-26 08:11:55 51°17.981 2°52.315 5.7 220 7.5 102800 72
2002-03-26 08:12:00 51°18 2°52.311 5.6 222 7.5 102800 72
2002-03-26 08:12:05 51°18.018 2°52.312 5.6 219 7.5 102800 72
2002-03-26 08:12:10 51°18.036 2°52.309 5 223 7.5 102800 73
2002-03-26 08:12:15 51°18.054 2°52.309 5.7 213 7.5 102800 73
2002-03-26 08:12:20 51°18.072 2°52.308 5 223 7.5 102800 72
2002-03-26 08:12:25 51°18.091 2°52.31 5.7 218 7.5 102800 72
2002-03-26 08:12:30 51°18.109 2°52.312 5.4 218 7.5 102800 72
2002-03-26 08:12:35 51°18.126 2°52.319 6 216 7.5 102800 72
2002-03-26 08:12:40 51°18.143 2°52.329 5.8 215 7.5 102800 73
2002-03-26 08:12:45 51°18.159 2°52.341 6.4 211 7.5 102800 73
2002-03-26 08:12:50 51°18.175 2°52.356 6.5 214 7.5 102800 72
2002-03-26 08:12:55 51°18.189 2°52.374 7.5 213 7.5 102800 72
2002-03-26 08:12:59 51°18.2 2°52.389 7 212 7.5 102800 73
2002-03-26 08:13:05 51°18.213 2°52.416 7.8 215 7.5 102800 73
2002-03-26 08:13:09 51°18.222 2°52.434 7.7 215 7.5 102800 72
2002-03-26 08:13:15 51°18.232 2°52.465 7.8 216 7.5 102800 72
2002-03-26 08:13:20 51°18.239 2°52.491 8.7 216 7.5 102800 72
2002-03-26 08:13:25 51°18.245 2°52.518 8 217 7.5 102800 72
2002-03-26 08:13:30 51°18.252 2°52.545 8 212 7.5 102790 72
2002-03-26 08:13:35 51°18.26 2°52.57 8.3 212 7.5 102790 72
2002-03-26 08:13:40 51°18.269 2°52.595 7.9 213 7.5 102790 73
2002-03-26 08:13:45 51°18.28 2°52.619 7.7 214 7.5 102790 73
2002-03-26 08:13:49 51°18.288 2°52.638 7.8 213 7.5 102790 73
2002-03-26 08:13:55 51°18.302 2°52.665 7.5 214 7.5 102790 73
2002-03-26 08:14:00 51°18.314 2°52.688 8.1 214 7.6 102790 73
2002-03-26 08:14:05 51°18.325 2°52.711 7.9 218 7.6 102790 73
2002-03-26 08:14:09 51°18.333 2°52.73 7.9 214 7.5 102790 73
2002-03-26 08:14:15 51°18.346 2°52.759 7.9 219 7.5 102790 73
2002-03-26 08:14:20 51°18.356 2°52.784 8.2 214 7.5 102790 73
2002-03-26 08:14:25 51°18.365 2°52.809 8.3 220 7.5 102790 73
2002-03-26 08:14:30 51°18.374 2°52.835 8.9 217 7.5 102790 73
2002-03-26 08:14:35 51°18.382 2°52.862 8 220 7.5 102790 73
2002-03-26 08:14:40 51°18.39 2°52.889 8.5 215 7.5 102800 73
2002-03-26 08:14:45 51°18.397 2°52.916 8.7 219 7.5 102800 73
2002-03-26 08:14:50 51°18.405 2°52.944 8.7 218 7.5 102790 73
2002-03-26 08:14:55 51°18.411 2°52.971 8.8 223 7.5 102790 73
2002-03-26 08:14:59 51°18.417 2°52.993 8.7 219 7.5 102790 72
2002-03-26 08:15:05 51°18.424 2°53.027 8.6 224 7.5 102790 72
2002-03-26 08:15:10 51°18.432 2°53.054 8.9 218 7.5 102790 73
2002-03-26 08:15:15 51°18.438 2°53.082 8 222 7.5 102790 73
2002-03-26 08:15:20 51°18.445 2°53.11 8.7 214 7.6 102790 73
2002-03-26 08:15:25 51°18.452 2°53.138 8.5 220 7.6 102790 73
2002-03-26 08:15:30 51°18.459 2°53.165 9.2 217 7.5 102790 73
2002-03-26 08:15:35 51°18.465 2°53.193 8.4 220 7.5 102790 73
2002-03-26 08:15:40 51°18.473 2°53.22 8.5 218 7.5 102790 73
2002-03-26 08:15:45 51°18.48 2°53.248 8.3 222 7.5 102790 73
2002-03-26 08:15:49 51°18.486 2°53.269 8 219 7.6 102790 73
2002-03-26 08:15:54 51°18.492 2°53.297 8.2 223 7.6 102790 73
2002-03-26 08:16:00 51°18.502 2°53.329 8.3 217 7.5 102790 73
2002-03-26 08:16:05 51°18.509 2°53.357 8.3 222 7.5 102790 73
2002-03-26 08:16:10 51°18.517 2°53.384 7.6 220 7.5 102800 73
2002-03-26 08:16:15 51°18.523 2°53.411 7.9 224 7.5 102800 73
2002-03-26 08:16:20 51°18.532 2°53.438 7.8 222 7.5 102800 72
2002-03-26 08:16:25 51°18.538 2°53.466 7.7 224 7.5 102800 72
2002-03-26 08:16:30 51°18.546 2°53.493 7.6 218 7.6 102790 72
2002-03-26 08:16:35 51°18.552 2°53.52 7.6 224 7.6 102790 72
2002-03-26 08:16:40 51°18.56 2°53.548 7.3 218 7.5 102800 72
2002-03-26 08:16:45 51°18.566 2°53.576 7.3 223 7.5 102800 72
2002-03-26 08:16:50 51°18.573 2°53.603 7.7 221 7.5 102800 72
2002-03-26 08:16:55 51°18.579 2°53.631 7.7 223 7.5 102800 72
2002-03-26 08:17:00 51°18.587 2°53.658 7.9 223 7.5 102800 72
2002-03-26 08:17:05 51°18.592 2°53.687 7.2 225 7.5 102800 72
2002-03-26 08:17:10 51°18.599 2°53.714 7.6 221 7.5 102800 72
2002-03-26 08:17:15 51°18.605 2°53.742 7.7 222 7.5 102800 72
2002-03-26 08:17:20 51°18.612 2°53.769 7.6 218 7.5 102790 72
2002-03-26 08:17:25 51°18.619 2°53.797 8.4 220 7.5 102790 72
2002-03-26 08:17:30 51°18.625 2°53.826 7.5 218 7.5 102800 73
2002-03-26 08:17:35 51°18.631 2°53.853 8.2 220 7.5 102800 73
2002-03-26 08:17:40 51°18.639 2°53.88 7.8 223 7.5 102800 73
2002-03-26 08:17:45 51°18.645 2°53.909 7.9 222 7.5 102800 73
2002-03-26 08:17:50 51°18.652 2°53.936 7.6 218 7.5 102790 73
2002-03-26 08:17:55 51°18.658 2°53.964 7.5 222 7.5 102790 73
2002-03-26 08:18:00 51°18.666 2°53.991 7.6 217 7.5 102800 73
2002-03-26 08:18:05 51°18.672 2°54.02 7.8 222 7.5 102800 73
2002-03-26 08:18:09 51°18.678 2°54.042 7.5 219 7.6 102790 73
2002-03-26 08:18:15 51°18.686 2°54.075 7.6 223 7.6 102790 73
2002-03-26 08:18:20 51°18.693 2°54.102 7.7 219 7.5 102800 73
2002-03-26 08:18:25 51°18.699 2°54.13 8 225 7.5 102800 73
2002-03-26 08:18:30 51°18.707 2°54.158 8.2 219 7.5 102800 73
2002-03-26 08:18:35 51°18.713 2°54.186 8 225 7.5 102800 73
2002-03-26 08:18:40 51°18.72 2°54.213 7.7 219 7.5 102800 73
2002-03-26 08:18:45 51°18.727 2°54.241 7.7 224 7.5 102800 73
2002-03-26 08:18:49 51°18.733 2°54.262 7.4 219 7.5 102800 73
2002-03-26 08:18:55 51°18.74 2°54.296 7 223 7.5 102800 73
2002-03-26 08:19:00 51°18.748 2°54.323 7.1 217 7.5 102790 73
2002-03-26 08:19:05 51°18.754 2°54.351 7.2 223 7.5 102790 73
2002-03-26 08:19:10 51°18.761 2°54.378 7.3 218 7.5 102800 72
2002-03-26 08:19:15 51°18.767 2°54.406 7.6 224 7.5 102800 72
2002-03-26 08:19:20 51°18.775 2°54.433 7.2 218 7.5 102790 72
2002-03-26 08:19:25 51°18.78 2°54.461 7.5 225 7.5 102790 72
2002-03-26 08:19:30 51°18.788 2°54.489 7.5 219 7.5 102800 72
2002-03-26 08:19:35 51°18.793 2°54.517 8.2 225 7.5 102800 72
2002-03-26 08:19:40 51°18.801 2°54.545 7.9 221 7.5 102800 73
2002-03-26 08:19:45 51°18.806 2°54.573 7.2 225 7.5 102800 73
2002-03-26 08:19:49 51°18.812 2°54.594 7.3 220 7.5 102800 73
2002-03-26 08:19:55 51°18.819 2°54.628 7.5 226 7.5 102800 73
2002-03-26 08:20:00 51°18.826 2°54.656 7.3 219 7.5 102800 73
2002-03-26 08:20:05 51°18.832 2°54.684 7.4 225 7.5 102800 73
2002-03-26 08:20:09 51°18.838 2°54.705 7.3 221 7.5 102800 73
2002-03-26 08:20:15 51°18.845 2°54.739 7.4 223 7.5 102800 73
2002-03-26 08:20:20 51°18.852 2°54.767 8 219 7.5 102800 73
2002-03-26 08:20:25 51°18.858 2°54.795 8 226 7.5 102800 73
2002-03-26 08:20:30 51°18.865 2°54.823 7.9 220 7.5 102800 73
2002-03-26 08:20:35 51°18.871 2°54.851 7.5 226 7.5 102800 73
2002-03-26 08:20:40 51°18.877 2°54.88 7.5 223 7.5 102800 73
2002-03-26 08:20:45 51°18.883 2°54.908 7.5 224 7.5 102800 73
2002-03-26 08:20:50 51°18.888 2°54.936 7.5 224 7.5 102800 73
2002-03-26 08:20:55 51°18.894 2°54.965 7.4 225 7.5 102800 73
2002-03-26 08:21:00 51°18.9 2°54.993 7.3 223 7.5 102800 73
2002-03-26 08:21:05 51°18.906 2°55.022 7.7 225 7.5 102800 73
2002-03-26 08:21:10 51°18.911 2°55.05 7.8 135 7.5 102800 73
2002-03-26 08:21:15 51°18.917 2°55.079 7.3 225 7.5 102800 73
2002-03-26 08:21:20 51°18.923 2°55.107 7.6 224 7.5 102800 73
2002-03-26 08:21:25 51°18.929 2°55.135 7.9 224 7.5 102800 73
2002-03-26 08:21:30 51°18.935 2°55.164 7.2 224 7.5 102800 73
2002-03-26 08:21:35 51°18.941 2°55.192 7.7 225 7.5 102800 73
2002-03-26 08:21:40 51°18.947 2°55.221 7.4 225 7.5 102800 72
2002-03-26 08:21:45 51°18.953 2°55.249 7.7 225 7.5 102800 72
2002-03-26 08:21:50 51°18.959 2°55.278 7.4 225 7.5 102800 72
2002-03-26 08:21:55 51°18.964 2°55.306 7.4 225 7.5 102800 72
2002-03-26 08:22:00 51°18.97 2°55.335 7.9 221 7.5 102810 73
2002-03-26 08:22:05 51°18.976 2°55.363 7.8 223 7.5 102810 73
2002-03-26 08:22:10 51°18.983 2°55.391 8.1 224 7.5 102800 73
2002-03-26 08:22:15 51°18.988 2°55.42 7.9 224 7.5 102800 73
2002-03-26 08:22:20 51°18.995 2°55.448 7.6 223 7.5 102810 73
2002-03-26 08:22:24 51°18.999 2°55.471 7.8 223 7.5 102810 73
2002-03-26 08:22:30 51°19.007 2°55.505 7.8 221 7.5 102800 73
2002-03-26 08:22:35 51°19.013 2°55.534 7.3 224 7.5 102800 73
2002-03-26 08:22:40 51°19.019 2°55.562 7.6 225 7.5 102810 74
2002-03-26 08:22:44 51°19.023 2°55.585 7.7 224 7.5 102810 74
2002-03-26 08:22:49 51°19.03 2°55.614 7.4 223 7.5 102810 73
2002-03-26 08:22:55 51°19.037 2°55.648 7.9 224 7.5 102810 73
2002-03-26 08:23:00 51°19.044 2°55.675 8 224 7.5 102800 73
2002-03-26 08:23:05 51°19.049 2°55.704 7.6 224 7.5 102800 73
2002-03-26 08:23:10 51°19.056 2°55.732 7.7 223 7.5 102810 74
2002-03-26 08:23:15 51°19.062 2°55.761 8.3 225 7.5 102810 74
2002-03-26 08:23:20 51°19.068 2°55.789 7.8 226 7.5 102810 74
2002-03-26 08:23:25 51°19.074 2°55.818 7.3 223 7.5 102810 74
2002-03-26 08:23:30 51°19.08 2°55.846 7.9 222 7.5 102800 74
2002-03-26 08:23:35 51°19.086 2°55.875 7.6 224 7.5 102800 74
2002-03-26 08:23:40 51°19.092 2°55.904 7.5 220 7.5 102800 74
2002-03-26 08:23:45 51°19.099 2°55.932 8.1 222 7.5 102800 74
2002-03-26 08:23:50 51°19.104 2°55.96 8 223 7.5 102800 74
2002-03-26 08:23:55 51°19.111 2°55.989 7.6 223 7.5 102800 74
2002-03-26 08:23:59 51°19.115 2°56.012 7.7 224 7.5 102810 74
2002-03-26 08:24:05 51°19.123 2°56.046 7.7 224 7.5 102810 74
2002-03-26 08:24:10 51°19.129 2°56.074 8.1 224 7.5 102800 74
2002-03-26 08:24:15 51°19.135 2°56.103 7.5 223 7.5 102800 74
2002-03-26 08:24:20 51°19.141 2°56.131 7.5 223 7.5 102800 74
2002-03-26 08:24:25 51°19.148 2°56.159 8 221 7.5 102800 74
2002-03-26 08:24:30 51°19.154 2°56.188 7.6 223 7.5 102810 74
2002-03-26 08:24:35 51°19.16 2°56.217 7.8 223 7.5 102810 74
2002-03-26 08:24:40 51°19.166 2°56.245 7.8 225 7.5 102810 74
2002-03-26 08:24:45 51°19.172 2°56.274 7.7 225 7.5 102810 74
2002-03-26 08:24:50 51°19.179 2°56.302 8.2 226 7.4 102810 74
2002-03-26 08:24:55 51°19.185 2°56.331 7.7 225 7.4 102810 74
2002-03-26 08:25:00 51°19.191 2°56.359 8 225 7.5 102810 74
2002-03-26 08:25:05 51°19.197 2°56.387 7.5 227 7.5 102810 74
2002-03-26 08:25:10 51°19.203 2°56.415 7.8 224 7.4 102810 74
2002-03-26 08:25:15 51°19.209 2°56.443 7.9 226 7.4 102810 74
2002-03-26 08:25:20 51°19.216 2°56.472 8.2 224 7.4 102810 74
2002-03-26 08:25:25 51°19.222 2°56.5 7.7 223 7.4 102810 74
2002-03-26 08:25:30 51°19.228 2°56.528 7.9 222 7.4 102810 74
2002-03-26 08:25:35 51°19.234 2°56.557 7.4 223 7.4 102810 74
2002-03-26 08:25:40 51°19.241 2°56.586 7.9 223 7.4 102810 74
2002-03-26 08:25:45 51°19.247 2°56.614 7.4 223 7.4 102810 74
2002-03-26 08:25:50 51°19.253 2°56.642 8.1 223 7.5 102810 74
2002-03-26 08:25:55 51°19.259 2°56.671 8 221 7.5 102810 74
2002-03-26 08:26:00 51°19.265 2°56.699 7.9 221 7.4 102810 74
2002-03-26 08:26:05 51°19.272 2°56.727 7.9 222 7.4 102810 74
2002-03-26 08:26:10 51°19.278 2°56.756 8 222 7.5 102800 74
2002-03-26 08:26:15 51°19.284 2°56.784 8.2 221 7.5 102800 74
2002-03-26 08:26:20 51°19.29 2°56.813 7.9 220 7.5 102810 74
2002-03-26 08:26:25 51°19.297 2°56.841 8.1 221 7.5 102810 74
2002-03-26 08:26:30 51°19.303 2°56.869 7.9 222 7.4 102800 74
2002-03-26 08:26:35 51°19.309 2°56.898 7.5 221 7.4 102800 74
2002-03-26 08:26:40 51°19.315 2°56.926 7.6 220 7.4 102810 74
2002-03-26 08:26:45 51°19.322 2°56.955 7.4 224 7.4 102810 74
2002-03-26 08:26:50 51°19.328 2°56.983 7.7 223 7.4 102800 74
2002-03-26 08:26:55 51°19.334 2°57.012 7.5 223 7.4 102800 74
2002-03-26 08:27:00 51°19.34 2°57.04 7 219 7.4 102800 74
2002-03-26 08:27:05 51°19.347 2°57.068 7.7 222 7.4 102800 74
2002-03-26 08:27:10 51°19.353 2°57.097 7.6 219 7.5 102800 74
2002-03-26 08:27:15 51°19.36 2°57.125 7.5 222 7.5 102800 74
2002-03-26 08:27:20 51°19.365 2°57.154 7.6 225 7.5 102800 74
2002-03-26 08:27:25 51°19.372 2°57.182 7.4 224 7.5 102800 74
2002-03-26 08:27:30 51°19.378 2°57.211 7.4 223 7.4 102800 74
2002-03-26 08:27:35 51°19.384 2°57.239 7.5 220 7.4 102800 74
2002-03-26 08:27:40 51°19.39 2°57.268 7.9 223 7.4 102800 74
2002-03-26 08:27:45 51°19.397 2°57.296 7.6 221 7.4 102800 74
2002-03-26 08:27:50 51°19.402 2°57.325 8.1 224 7.4 102810 73
2002-03-26 08:27:55 51°19.409 2°57.354 7.5 219 7.4 102810 73
2002-03-26 08:28:00 51°19.415 2°57.382 8.3 224 7.4 102800 73
2002-03-26 08:28:05 51°19.421 2°57.411 7.1 224 7.4 102800 73
2002-03-26 08:28:09 51°19.426 2°57.434 7.5 221 7.4 102800 73
2002-03-26 08:28:15 51°19.433 2°57.468 7.3 218 7.4 102800 73
2002-03-26 08:28:20 51°19.44 2°57.496 7.8 224 7.4 102800 73
2002-03-26 08:28:25 51°19.446 2°57.525 7.6 221 7.4 102800 73
2002-03-26 08:28:30 51°19.452 2°57.554 7.3 224 7.4 102810 73
2002-03-26 08:28:35 51°19.458 2°57.583 7.8 218 7.4 102810 73
2002-03-26 08:28:40 51°19.465 2°57.611 7.2 221 7.5 102800 74
2002-03-26 08:28:45 51°19.47 2°57.64 7.9 221 7.5 102800 74
2002-03-26 08:28:50 51°19.477 2°57.668 7.3 221 7.5 102810 74
2002-03-26 08:28:55 51°19.483 2°57.697 6.9 222 7.5 102810 74
2002-03-26 08:29:00 51°19.49 2°57.726 7.6 224 7.5 102800 74
2002-03-26 08:29:05 51°19.495 2°57.755 7.2 219 7.5 102800 74
2002-03-26 08:29:10 51°19.502 2°57.783 7.9 222 7.5 102800 74
2002-03-26 08:29:15 51°19.508 2°57.812 7.7 224 7.5 102800 74
2002-03-26 08:29:20 51°19.515 2°57.84 7.2 227 7.5 102810 75
2002-03-26 08:29:25 51°19.521 2°57.869 6.9 224 7.5 102810 75
2002-03-26 08:29:30 51°19.528 2°57.897 7 225 7.5 102810 75
2002-03-26 08:29:35 51°19.533 2°57.926 7 225 7.5 102810 75
2002-03-26 08:29:40 51°19.54 2°57.955 7.4 225 7.5 102800 75
2002-03-26 08:29:45 51°19.546 2°57.983 6.5 225 7.5 102800 75
2002-03-26 08:29:49 51°19.551 2°58.006 7.2 221 7.5 102800 75
2002-03-26 08:29:55 51°19.559 2°58.041 6.9 223 7.5 102800 75
2002-03-26 08:30:00 51°19.565 2°58.07 6.5 218 7.5 102800 74
2002-03-26 08:30:05 51°19.571 2°58.098 7.3 222 7.5 102800 74
2002-03-26 08:30:10 51°19.577 2°58.127 7.5 219 7.4 102800 73
2002-03-26 08:30:15 51°19.584 2°58.156 7.3 223 7.4 102800 73
2002-03-26 08:30:20 51°19.59 2°58.184 7.3 223 7.5 102800 73
2002-03-26 08:30:25 51°19.596 2°58.212 6.8 218 7.5 102800 73
2002-03-26 08:30:30 51°19.602 2°58.242 7.2 219 7.4 102800 73
2002-03-26 08:30:35 51°19.609 2°58.27 7.3 223 7.4 102800 73
2002-03-26 08:30:40 51°19.615 2°58.299 7.3 224 7.4 102800 72
2002-03-26 08:30:45 51°19.621 2°58.328 6.8 222 7.4 102800 72
2002-03-26 08:30:50 51°19.627 2°58.357 7.4 221 7.4 102810 73
2002-03-26 08:30:54 51°19.632 2°58.38 6.9 222 7.4 102810 73
2002-03-26 08:31:00 51°19.639 2°58.414 6.9 225 7.4 102810 73
2002-03-26 08:31:04 51°19.644 2°58.436 7.2 223 7.4 102810 73
2002-03-26 08:31:10 51°19.651 2°58.471 7.1 226 7.5 102810 74
2002-03-26 08:31:15 51°19.658 2°58.5 7 225 7.5 102810 74
2002-03-26 08:31:20 51°19.664 2°58.529 6.9 225 7.5 102800 74
2002-03-26 08:31:25 51°19.67 2°58.557 7.2 223 7.5 102800 74
2002-03-26 08:31:30 51°19.676 2°58.586 7.6 224 7.5 102810 74
2002-03-26 08:31:35 51°19.682 2°58.615 6.9 227 7.5 102810 74
2002-03-26 08:31:40 51°19.689 2°58.644 7.3 225 7.5 102800 74
2002-03-26 08:31:45 51°19.695 2°58.672 7.4 221 7.5 102800 74
2002-03-26 08:31:50 51°19.702 2°58.701 7.4 223 7.5 102810 74
2002-03-26 08:31:55 51°19.708 2°58.73 7.6 226 7.5 102810 74
2002-03-26 08:32:00 51°19.715 2°58.759 7.3 228 7.5 102810 73
2002-03-26 08:32:05 51°19.72 2°58.788 7.5 224 7.5 102810 73
2002-03-26 08:32:09 51°19.726 2°58.811 7.1 223 7.5 102810 73
2002-03-26 08:32:15 51°19.733 2°58.845 7.5 223 7.5 102810 73
2002-03-26 08:32:20 51°19.74 2°58.874 7.4 224 7.5 102810 73
2002-03-26 08:32:25 51°19.746 2°58.903 7.8 225 7.5 102810 73
2002-03-26 08:32:30 51°19.752 2°58.932 7.3 226 7.5 102810 73
2002-03-26 08:32:35 51°19.758 2°58.961 7.5 225 7.5 102810 73
2002-03-26 08:32:39 51°19.763 2°58.984 7 223 7.5 102810 73
2002-03-26 08:32:45 51°19.77 2°59.019 6.9 224 7.5 102810 73
2002-03-26 08:32:49 51°19.775 2°59.041 7.5 222 7.5 102800 73
2002-03-26 08:32:55 51°19.783 2°59.076 7.8 223 7.5 102800 73
2002-03-26 08:33:00 51°19.789 2°59.105 7.2 222 7.5 102810 73
2002-03-26 08:33:05 51°19.795 2°59.134 7.6 221 7.5 102810 73
2002-03-26 08:33:10 51°19.801 2°59.163 8 223 7.5 102810 73
2002-03-26 08:33:15 51°19.808 2°59.192 7.2 225 7.5 102810 73
2002-03-26 08:33:20 51°19.814 2°59.221 7.7 225 7.5 102800 74
2002-03-26 08:33:25 51°19.821 2°59.25 7.7 225 7.5 102800 74
2002-03-26 08:33:30 51°19.827 2°59.279 7.4 224 7.5 102810 73
2002-03-26 08:33:35 51°19.833 2°59.307 7.2 223 7.5 102810 73
2002-03-26 08:33:40 51°19.84 2°59.337 7.1 222 7.5 102800 73
2002-03-26 08:33:45 51°19.846 2°59.365 7.3 223 7.5 102800 73
2002-03-26 08:33:49 51°19.851 2°59.389 7.3 219 7.5 102800 73
2002-03-26 08:33:55 51°19.859 2°59.423 7 221 7.5 102800 73
2002-03-26 08:34:00 51°19.865 2°59.453 6.5 221 7.5 102810 73
2002-03-26 08:34:05 51°19.871 2°59.482 7.3 225 7.5 102810 73
2002-03-26 08:34:10 51°19.878 2°59.511 7.3 223 7.5 102810 73
2002-03-26 08:34:15 51°19.884 2°59.539 6.9 224 7.5 102810 73
2002-03-26 08:34:20 51°19.891 2°59.568 6.9 223 7.4 102800 73
2002-03-26 08:34:25 51°19.899 2°59.597 7.1 224 7.4 102800 73
2002-03-26 08:34:30 51°19.905 2°59.625 7.3 220 7.4 102810 73
2002-03-26 08:34:35 51°19.914 2°59.653 7 223 7.4 102810 73
2002-03-26 08:34:40 51°19.92 2°59.682 7.1 223 7.4 102810 74
2002-03-26 08:34:45 51°19.928 2°59.71 6.8 226 7.4 102810 74
2002-03-26 08:34:49 51°19.934 2°59.733 7.3 223 7.5 102810 74
2002-03-26 08:34:55 51°19.944 2°59.767 7.2 223 7.5 102810 74
2002-03-26 08:35:00 51°19.95 2°59.795 6.5 226 7.4 102810 74
2002-03-26 08:35:05 51°19.958 2°59.823 6.9 225 7.4 102810 74
2002-03-26 08:35:09 51°19.964 2°59.847 6.5 227 7.5 102810 74
2002-03-26 08:35:15 51°19.973 2°59.88 7 226 7.5 102810 74
2002-03-26 08:35:20 51°19.98 2°59.909 6.6 227 7.4 102810 74
2002-03-26 08:35:25 51°19.988 2°59.937 6.7 222 7.4 102810 74
2002-03-26 08:35:30 51°19.995 2°59.966 6.4 227 7.4 102810 74
2002-03-26 08:35:35 51°20.002 2°59.995 6.7 224 7.4 102810 74
2002-03-26 08:35:40 51°20.01 3°0.023 6.5 225 7.4 102810 74
2002-03-26 08:35:45 51°20.017 3°0.052 6.2 226 7.4 102810 74
2002-03-26 08:35:50 51°20.024 3°0.081 6.8 227 7.5 102810 74
2002-03-26 08:35:55 51°20.032 3°0.109 6.9 225 7.5 102810 74
2002-03-26 08:36:00 51°20.039 3°0.138 6.8 225 7.5 102810 74
2002-03-26 08:36:05 51°20.046 3°0.167 6.5 225 7.5 102810 74
2002-03-26 08:36:10 51°20.054 3°0.196 6.5 226 7.5 102810 74
2002-03-26 08:36:15 51°20.061 3°0.225 7 228 7.5 102810 74
2002-03-26 08:36:20 51°20.068 3°0.253 6.6 228 7.4 102810 74
2002-03-26 08:36:25 51°20.075 3°0.282 6.5 229 7.4 102810 74
2002-03-26 08:36:30 51°20.083 3°0.311 7.1 228 7.4 102810 74
2002-03-26 08:36:35 51°20.09 3°0.34 6.7 228 7.4 102810 74
2002-03-26 08:36:40 51°20.097 3°0.369 6.6 227 7.5 102810 74
2002-03-26 08:36:44 51°20.103 3°0.392 6.5 229 7.5 102810 74
2002-03-26 08:36:50 51°20.112 3°0.426 6.9 225 7.5 102810 74
2002-03-26 08:36:55 51°20.12 3°0.455 6.6 229 7.5 102810 74
2002-03-26 08:37:00 51°20.127 3°0.484 6.7 228 7.5 102810 74
2002-03-26 08:37:05 51°20.135 3°0.513 6.7 229 7.5 102810 74
2002-03-26 08:37:10 51°20.142 3°0.541 6.5 225 7.5 102810 74
2002-03-26 08:37:15 51°20.149 3°0.57 6.4 228 7.5 102810 74
2002-03-26 08:37:20 51°20.156 3°0.599 6.7 225 7.4 102810 74
2002-03-26 08:37:25 51°20.164 3°0.627 6.3 231 7.4 102810 74
2002-03-26 08:37:30 51°20.171 3°0.656 6.3 225 7.5 102810 74
2002-03-26 08:37:35 51°20.179 3°0.685 6.7 227 7.5 102810 74
2002-03-26 08:37:40 51°20.186 3°0.714 6.5 225 7.4 102810 74
2002-03-26 08:37:45 51°20.194 3°0.742 6.2 226 7.4 102810 74
2002-03-26 08:37:50 51°20.201 3°0.772 6.9 225 7.5 102810 74
2002-03-26 08:37:55 51°20.208 3°0.8 6.8 228 7.5 102810 74
2002-03-26 08:38:00 51°20.215 3°0.83 6.9 226 7.5 102820 74
2002-03-26 08:38:05 51°20.223 3°0.858 6.8 228 7.5 102820 74
2002-03-26 08:38:10 51°20.23 3°0.888 7.3 225 7.5 102810 74
2002-03-26 08:38:15 51°20.238 3°0.916 6.8 227 7.5 102810 74
2002-03-26 08:38:20 51°20.245 3°0.945 6.7 227 7.5 102810 74
2002-03-26 08:38:25 51°20.253 3°0.974 7.4 231 7.5 102810 74
2002-03-26 08:38:29 51°20.258 3°0.997 7.3 230 7.5 102810 74
2002-03-26 08:38:35 51°20.268 3°1.032 6.9 228 7.5 102810 74
2002-03-26 08:38:40 51°20.275 3°1.061 7.2 231 7.4 102820 74
2002-03-26 08:38:45 51°20.282 3°1.09 7.1 229 7.4 102820 74
2002-03-26 08:38:50 51°20.289 3°1.119 6.7 229 7.4 102820 74
2002-03-26 08:38:55 51°20.297 3°1.148 7 229 7.4 102820 74
2002-03-26 08:39:00 51°20.304 3°1.177 7.3 230 7.4 102820 73
2002-03-26 08:39:05 51°20.312 3°1.206 7.2 230 7.4 102820 73
2002-03-26 08:39:09 51°20.318 3°1.229 7.8 231 7.4 102820 73
2002-03-26 08:39:15 51°20.327 3°1.264 8 230 7.4 102820 73
2002-03-26 08:39:20 51°20.334 3°1.293 8 231 7.5 102820 73
2002-03-26 08:39:25 51°20.342 3°1.323 7.9 232 7.5 102820 73
2002-03-26 08:39:30 51°20.349 3°1.352 8 231 7.5 102820 73
2002-03-26 08:39:35 51°20.357 3°1.381 7.7 228 7.5 102820 73
2002-03-26 08:39:40 51°20.364 3°1.41 7.4 229 7.5 102820 73
2002-03-26 08:39:45 51°20.372 3°1.439 7.7 231 7.5 102820 73
2002-03-26 08:39:50 51°20.379 3°1.468 7.2 229 7.5 102820 73
2002-03-26 08:39:55 51°20.386 3°1.496 8.2 230 7.5 102820 73
2002-03-26 08:40:00 51°20.394 3°1.525 8.1 228 7.5 102820 73
2002-03-26 08:40:05 51°20.402 3°1.553 7.6 231 7.5 102820 73
2002-03-26 08:40:10 51°20.409 3°1.582 8 229 7.4 102820 72
2002-03-26 08:40:15 51°20.418 3°1.609 7.8 228 7.4 102820 72
2002-03-26 08:40:19 51°20.424 3°1.632 8 226 7.4 102820 72
2002-03-26 08:40:24 51°20.432 3°1.66 8.1 230 7.4 102820 72
2002-03-26 08:40:30 51°20.442 3°1.694 7.8 228 7.4 102820 72
2002-03-26 08:40:35 51°20.45 3°1.722 8.4 226 7.4 102820 72
2002-03-26 08:40:40 51°20.458 3°1.75 8 228 7.4 102820 72
2002-03-26 08:40:45 51°20.466 3°1.778 7.9 228 7.4 102820 72
2002-03-26 08:40:50 51°20.474 3°1.807 8.5 228 7.5 102820 72
2002-03-26 08:40:55 51°20.482 3°1.835 8.2 226 7.5 102820 72
2002-03-26 08:41:00 51°20.49 3°1.863 8.6 227 7.5 102820 72
2002-03-26 08:41:05 51°20.498 3°1.892 8.6 227 7.5 102820 72
2002-03-26 08:41:10 51°20.506 3°1.92 8.7 227 7.5 102820 73
2002-03-26 08:41:15 51°20.514 3°1.948 8.4 225 7.5 102820 73
2002-03-26 08:41:20 51°20.522 3°1.976 8.4 226 7.5 102820 73
2002-03-26 08:41:24 51°20.528 3°1.999 8.6 226 7.5 102820 73
2002-03-26 08:41:30 51°20.537 3°2.033 8.5 228 7.5 102820 73
2002-03-26 08:41:35 51°20.545 3°2.061 8.5 227 7.5 102820 73
2002-03-26 08:41:40 51°20.554 3°2.089 8 229 7.5 102810 73
2002-03-26 08:41:45 51°20.561 3°2.117 8.6 226 7.5 102810 73
2002-03-26 08:41:50 51°20.57 3°2.145 8 230 7.5 102820 73
2002-03-26 08:41:55 51°20.577 3°2.174 7.9 230 7.5 102820 73
2002-03-26 08:42:00 51°20.586 3°2.202 8.6 231 7.5 102820 73
2002-03-26 08:42:05 51°20.593 3°2.23 8.2 231 7.5 102820 73
2002-03-26 08:42:10 51°20.601 3°2.258 8.4 229 7.5 102820 73
2002-03-26 08:42:15 51°20.609 3°2.286 7.9 228 7.5 102820 73
2002-03-26 08:42:20 51°20.617 3°2.315 7.9 226 7.5 102820 73
2002-03-26 08:42:25 51°20.625 3°2.343 7.7 228 7.5 102820 73
2002-03-26 08:42:30 51°20.633 3°2.371 8.7 230 7.5 102820 73
2002-03-26 08:42:35 51°20.641 3°2.4 8.5 230 7.5 102820 73
2002-03-26 08:42:40 51°20.649 3°2.428 8 230 7.5 102810 73
2002-03-26 08:42:45 51°20.657 3°2.457 8.6 231 7.5 102810 73
2002-03-26 08:42:50 51°20.665 3°2.485 7.9 231 7.4 102820 73
2002-03-26 08:42:55 51°20.673 3°2.514 7.8 231 7.4 102820 73
2002-03-26 08:43:00 51°20.681 3°2.542 8.2 231 7.4 102820 74
2002-03-26 08:43:05 51°20.689 3°2.57 8.1 230 7.4 102820 74
2002-03-26 08:43:10 51°20.698 3°2.598 8.4 233 7.4 102820 73
2002-03-26 08:43:15 51°20.706 3°2.627 7.7 230 7.4 102820 73
2002-03-26 08:43:20 51°20.714 3°2.655 8.3 229 7.4 102820 73
2002-03-26 08:43:25 51°20.722 3°2.684 8.1 231 7.4 102820 73
2002-03-26 08:43:30 51°20.73 3°2.712 7.8 230 7.4 102820 74
2002-03-26 08:43:35 51°20.738 3°2.741 8.4 232 7.4 102820 74
2002-03-26 08:43:40 51°20.746 3°2.77 8.4 232 7.4 102820 74
2002-03-26 08:43:45 51°20.754 3°2.798 7.8 230 7.4 102820 74
2002-03-26 08:43:50 51°20.762 3°2.826 8 230 7.4 102820 74
2002-03-26 08:43:55 51°20.77 3°2.855 7.8 230 7.4 102820 74
2002-03-26 08:44:00 51°20.779 3°2.883 8.4 231 7.4 102820 74
2002-03-26 08:44:05 51°20.787 3°2.911 8.3 231 7.4 102820 74
2002-03-26 08:44:10 51°20.796 3°2.939 8.7 232 7.4 102820 74
2002-03-26 08:44:15 51°20.804 3°2.968 8.9 232 7.4 102820 74
2002-03-26 08:44:20 51°20.813 3°2.996 8.7 229 7.4 102820 75
2002-03-26 08:44:25 51°20.822 3°3.024 8.1 228 7.4 102820 75
2002-03-26 08:44:30 51°20.829 3°3.053 8 226 7.3 102820 75
2002-03-26 08:44:35 51°20.839 3°3.08 8.4 231 7.3 102820 75
2002-03-26 08:44:40 51°20.846 3°3.109 8.6 227 7.3 102820 75
2002-03-26 08:44:44 51°20.854 3°3.131 8 228 7.3 102820 75
2002-03-26 08:44:50 51°20.864 3°3.166 8.7 230 7.3 102810 75
2002-03-26 08:44:55 51°20.873 3°3.194 7.9 227 7.3 102810 75
2002-03-26 08:45:00 51°20.881 3°3.222 8.7 228 7.3 102820 75
2002-03-26 08:45:05 51°20.89 3°3.25 8.2 230 7.3 102820 75
2002-03-26 08:45:10 51°20.898 3°3.279 8 230 7.3 102820 74
2002-03-26 08:45:15 51°20.907 3°3.306 8.3 228 7.3 102820 74
2002-03-26 08:45:20 51°20.915 3°3.335 8.7 229 7.3 102820 75
2002-03-26 08:45:25 51°20.924 3°3.363 8.3 231 7.3 102820 75
2002-03-26 08:45:30 51°20.932 3°3.391 7.7 230 7.3 102820 75
2002-03-26 08:45:35 51°20.941 3°3.419 7.8 229 7.3 102820 75
2002-03-26 08:45:40 51°20.949 3°3.448 7.4 232 7.3 102820 74
2002-03-26 08:45:45 51°20.958 3°3.475 7.5 228 7.3 102820 74
2002-03-26 08:45:50 51°20.966 3°3.504 7.7 234 7.3 102820 74
2002-03-26 08:45:55 51°20.975 3°3.532 7.9 229 7.3 102820 74
2002-03-26 08:46:00 51°20.983 3°3.56 7.7 233 7.2 102820 74
2002-03-26 08:46:05 51°20.992 3°3.588 7.2 232 7.2 102820 74
2002-03-26 08:46:09 51°20.998 3°3.611 7.7 234 7.2 102820 74
2002-03-26 08:46:15 51°21.009 3°3.645 7.5 233 7.2 102820 74
2002-03-26 08:46:20 51°21.017 3°3.673 7.2 235 7.2 102820 74
2002-03-26 08:46:25 51°21.026 3°3.702 7.8 232 7.2 102820 74
2002-03-26 08:46:29 51°21.033 3°3.724 7.5 237 7.2 102820 74
2002-03-26 08:46:35 51°21.043 3°3.758 7.8 230 7.2 102820 74
2002-03-26 08:46:40 51°21.052 3°3.786 7.8 236 7.2 102820 74
2002-03-26 08:46:45 51°21.06 3°3.815 7.4 231 7.2 102820 74
2002-03-26 08:46:50 51°21.069 3°3.843 7.6 235 7.2 102820 74
2002-03-26 08:46:55 51°21.077 3°3.871 7.7 234 7.2 102820 74
2002-03-26 08:47:00 51°21.085 3°3.899 7.9 237 7.2 102820 74
2002-03-26 08:47:05 51°21.093 3°3.928 7.3 234 7.2 102820 74
2002-03-26 08:47:10 51°21.102 3°3.956 7.5 233 7.2 102820 75
2002-03-26 08:47:15 51°21.11 3°3.985 7.4 232 7.2 102820 75
2002-03-26 08:47:20 51°21.119 3°4.013 7.5 232 7.2 102810 75
2002-03-26 08:47:25 51°21.127 3°4.042 7.7 232 7.2 102810 75
2002-03-26 08:47:30 51°21.136 3°4.07 7.4 232 7.2 102820 74
2002-03-26 08:47:35 51°21.144 3°4.099 7.8 231 7.2 102820 74
2002-03-26 08:47:40 51°21.153 3°4.127 8 232 7.2 102810 74
2002-03-26 08:47:45 51°21.161 3°4.156 7.9 232 7.2 102810 74
2002-03-26 08:47:49 51°21.168 3°4.178 7.7 231 7.2 102810 75
2002-03-26 08:47:55 51°21.178 3°4.213 8.1 232 7.2 102810 75
2002-03-26 08:48:00 51°21.187 3°4.241 7.9 230 7.2 102810 75
2002-03-26 08:48:05 51°21.195 3°4.27 7.9 229 7.2 102810 75
2002-03-26 08:48:10 51°21.204 3°4.298 8.1 229 7.2 102810 75
2002-03-26 08:48:15 51°21.212 3°4.327 7.8 231 7.2 102810 75
2002-03-26 08:48:19 51°21.219 3°4.35 8 231 7.2 102810 75
2002-03-26 08:48:25 51°21.229 3°4.384 7.5 232 7.2 102810 75
2002-03-26 08:48:30 51°21.238 3°4.413 7.5 231 7.2 102820 75
2002-03-26 08:48:35 51°21.246 3°4.441 8.1 234 7.2 102820 75
2002-03-26 08:48:40 51°21.255 3°4.47 7.7 231 7.2 102810 74
2002-03-26 08:48:45 51°21.264 3°4.498 7.9 234 7.2 102810 74
2002-03-26 08:48:50 51°21.272 3°4.527 7.9 231 7.2 102820 74
2002-03-26 08:48:55 51°21.281 3°4.555 7.9 234 7.2 102820 74
2002-03-26 08:49:00 51°21.289 3°4.584 7.5 232 7.2 102810 74
2002-03-26 08:49:05 51°21.298 3°4.612 8.1 236 7.2 102810 74
2002-03-26 08:49:10 51°21.306 3°4.641 7.6 234 7.2 102810 75
2002-03-26 08:49:15 51°21.315 3°4.669 8.1 235 7.2 102810 75
2002-03-26 08:49:20 51°21.323 3°4.698 7.9 233 7.2 102810 75
2002-03-26 08:49:25 51°21.332 3°4.726 7.9 235 7.2 102810 75
2002-03-26 08:49:30 51°21.34 3°4.755 8.3 233 7.2 102810 74
2002-03-26 08:49:35 51°21.349 3°4.783 7.6 234 7.2 102810 74
2002-03-26 08:49:40 51°21.357 3°4.812 7.6 234 7.2 102810 74
2002-03-26 08:49:45 51°21.367 3°4.841 7.4 235 7.2 102810 74
2002-03-26 08:49:50 51°21.375 3°4.87 7.5 235 7.2 102820 73
2002-03-26 08:49:55 51°21.384 3°4.898 7.4 235 7.2 102820 73
2002-03-26 08:50:00 51°21.392 3°4.927 7.5 235 7.2 102820 73
2002-03-26 08:50:05 51°21.401 3°4.955 7.7 234 7.2 102820 73
2002-03-26 08:50:09 51°21.407 3°4.978 7.2 233 7.2 102820 74
2002-03-26 08:50:15 51°21.417 3°5.012 7.3 236 7.2 102820 74
2002-03-26 08:50:20 51°21.426 3°5.041 7.5 235 7.2 102820 73
2002-03-26 08:50:25 51°21.434 3°5.069 7.2 236 7.2 102820 73
2002-03-26 08:50:30 51°21.443 3°5.098 7.7 237 7.2 102820 74
2002-03-26 08:50:35 51°21.451 3°5.127 7.8 236 7.2 102820 74
2002-03-26 08:50:40 51°21.46 3°5.155 7.6 235 7.2 102820 74
2002-03-26 08:50:44 51°21.466 3°5.178 7.6 238 7.2 102820 74
2002-03-26 08:50:49 51°21.475 3°5.207 7.5 237 7.2 102820 74
2002-03-26 08:50:55 51°21.485 3°5.241 7.6 238 7.2 102820 74
2002-03-26 08:51:00 51°21.493 3°5.27 8 237 7.2 102820 74
2002-03-26 08:51:05 51°21.502 3°5.298 8.1 236 7.2 102820 74
2002-03-26 08:51:10 51°21.511 3°5.327 7.9 239 7.2 102820 74
2002-03-26 08:51:15 51°21.52 3°5.355 8 238 7.2 102820 74
2002-03-26 08:51:20 51°21.528 3°5.384 7.8 239 7.2 102820 74
2002-03-26 08:51:25 51°21.536 3°5.412 8 237 7.2 102820 74
2002-03-26 08:51:30 51°21.544 3°5.441 7.4 236 7.2 102820 74
2002-03-26 08:51:35 51°21.553 3°5.47 7.5 237 7.2 102820 74
2002-03-26 08:51:40 51°21.561 3°5.499 7.4 238 7.2 102820 74
2002-03-26 08:51:45 51°21.57 3°5.527 7.5 236 7.2 102820 74
2002-03-26 08:51:50 51°21.579 3°5.556 7.4 238 7.2 102820 73
2002-03-26 08:51:55 51°21.587 3°5.584 7.5 237 7.2 102820 73
2002-03-26 08:52:00 51°21.595 3°5.613 7.5 237 7.2 102820 73
2002-03-26 08:52:05 51°21.604 3°5.641 7.9 236 7.2 102820 73
2002-03-26 08:52:10 51°21.612 3°5.67 7.9 238 7.2 102820 74
2002-03-26 08:52:15 51°21.621 3°5.699 7.9 237 7.2 102820 74
2002-03-26 08:52:20 51°21.629 3°5.727 7.9 235 7.2 102820 74
2002-03-26 08:52:25 51°21.638 3°5.756 7.6 237 7.2 102820 74
2002-03-26 08:52:29 51°21.645 3°5.779 8 236 7.2 102820 74
2002-03-26 08:52:35 51°21.654 3°5.814 7.8 237 7.2 102820 74
2002-03-26 08:52:40 51°21.662 3°5.843 8 233 7.2 102820 74
2002-03-26 08:52:45 51°21.669 3°5.872 7.8 239 7.2 102820 74
2002-03-26 08:52:50 51°21.676 3°5.902 7.7 234 7.2 102820 74
2002-03-26 08:52:55 51°21.684 3°5.931 7.8 236 7.2 102820 74
2002-03-26 08:53:00 51°21.691 3°5.961 7.9 231 7.2 102820 73
2002-03-26 08:53:05 51°21.699 3°5.99 7.8 232 7.2 102820 73
2002-03-26 08:53:10 51°21.705 3°6.02 7.8 229 7.2 102820 73
2002-03-26 08:53:15 51°21.713 3°6.049 7.5 233 7.2 102820 73
2002-03-26 08:53:20 51°21.72 3°6.078 7.3 232 7.2 102820 74
2002-03-26 08:53:25 51°21.728 3°6.108 7.3 233 7.2 102820 74
2002-03-26 08:53:30 51°21.735 3°6.137 7.4 234 7.2 102820 74
2002-03-26 08:53:35 51°21.743 3°6.167 7.6 233 7.2 102820 74
2002-03-26 08:53:40 51°21.75 3°6.196 7.6 235 7.2 102820 74
2002-03-26 08:53:45 51°21.758 3°6.226 8 234 7.2 102820 74
2002-03-26 08:53:50 51°21.765 3°6.255 7.3 234 7.2 102820 74
2002-03-26 08:53:55 51°21.773 3°6.285 7.2 234 7.2 102820 74
2002-03-26 08:54:00 51°21.781 3°6.314 7.3 233 7.2 102820 74
2002-03-26 08:54:05 51°21.789 3°6.343 7.4 233 7.2 102820 74
2002-03-26 08:54:09 51°21.795 3°6.367 7.4 233 7.3 102820 74
2002-03-26 08:54:15 51°21.804 3°6.402 6.8 232 7.3 102820 74
2002-03-26 08:54:20 51°21.812 3°6.432 6.6 232 7.2 102820 74
2002-03-26 08:54:25 51°21.819 3°6.461 7 233 7.2 102820 74
2002-03-26 08:54:30 51°21.827 3°6.491 7.1 233 7.2 102820 74
2002-03-26 08:54:35 51°21.834 3°6.521 7.2 233 7.2 102820 74
2002-03-26 08:54:40 51°21.842 3°6.55 7.3 233 7.2 102820 74
2002-03-26 08:54:44 51°21.848 3°6.574 6.6 234 7.2 102820 74
2002-03-26 08:54:50 51°21.857 3°6.609 6.7 232 7.3 102820 74
2002-03-26 08:54:55 51°21.865 3°6.639 7.1 237 7.3 102820 74
2002-03-26 08:55:00 51°21.872 3°6.669 6.7 233 7.3 102810 75
2002-03-26 08:55:05 51°21.88 3°6.698 6.7 235 7.3 102810 75
2002-03-26 08:55:10 51°21.888 3°6.728 7.3 236 7.3 102820 75
2002-03-26 08:55:15 51°21.895 3°6.758 7 239 7.3 102820 75
2002-03-26 08:55:20 51°21.903 3°6.787 6.7 238 7.3 102820 75
2002-03-26 08:55:25 51°21.909 3°6.818 7.2 240 7.3 102820 75
2002-03-26 08:55:30 51°21.917 3°6.848 7.1 239 7.3 102820 75
2002-03-26 08:55:35 51°21.922 3°6.879 6.6 240 7.3 102820 75
2002-03-26 08:55:40 51°21.929 3°6.909 6.8 238 7.3 102820 75
2002-03-26 08:55:45 51°21.935 3°6.94 7 240 7.3 102820 75
2002-03-26 08:55:50 51°21.941 3°6.971 7 236 7.3 102820 75
2002-03-26 08:55:55 51°21.945 3°7.002 7.1 240 7.3 102820 75
2002-03-26 08:56:00 51°21.951 3°7.033 6.9 234 7.3 102820 75
2002-03-26 08:56:05 51°21.955 3°7.065 7.4 240 7.3 102820 75
2002-03-26 08:56:10 51°21.96 3°7.096 7 232 7.3 102820 75
2002-03-26 08:56:15 51°21.965 3°7.127 6.6 237 7.3 102820 75
2002-03-26 08:56:20 51°21.969 3°7.158 6.9 233 7.3 102820 75
2002-03-26 08:56:25 51°21.974 3°7.19 7.1 234 7.3 102820 75
2002-03-26 08:56:30 51°21.979 3°7.221 7.3 232 7.3 102820 75
2002-03-26 08:56:35 51°21.984 3°7.252 7.3 234 7.3 102820 75
2002-03-26 08:56:40 51°21.989 3°7.284 7.3 235 7.3 102820 75
2002-03-26 08:56:45 51°21.994 3°7.315 7.5 235 7.3 102820 75
2002-03-26 08:56:50 51°21.999 3°7.346 7 232 7.3 102820 75
2002-03-26 08:56:55 51°22.004 3°7.377 7 232 7.3 102820 75
2002-03-26 08:57:00 51°22.009 3°7.409 7.3 232 7.3 102820 75
2002-03-26 08:57:05 51°22.015 3°7.44 7 231 7.3 102820 75
2002-03-26 08:57:10 51°22.019 3°7.471 7.6 231 7.3 102820 75
2002-03-26 08:57:15 51°22.025 3°7.503 7.2 233 7.3 102820 75
2002-03-26 08:57:20 51°22.03 3°7.534 7.3 233 7.3 102820 75
2002-03-26 08:57:25 51°22.035 3°7.565 7.7 232 7.3 102820 75
2002-03-26 08:57:30 51°22.04 3°7.596 7.7 233 7.3 102820 75
2002-03-26 08:57:35 51°22.046 3°7.628 7.6 231 7.3 102820 75
2002-03-26 08:57:40 51°22.051 3°7.659 7.2 232 7.3 102820 75
2002-03-26 08:57:45 51°22.056 3°7.691 7.6 233 7.3 102820 75
2002-03-26 08:57:50 51°22.061 3°7.722 7.2 236 7.3 102820 75
2002-03-26 08:57:55 51°22.067 3°7.753 7.4 233 7.3 102820 75
2002-03-26 08:58:00 51°22.072 3°7.785 7.2 234 7.3 102820 75
2002-03-26 08:58:05 51°22.078 3°7.816 7.2 232 7.3 102820 75
2002-03-26 08:58:10 51°22.084 3°7.846 7.1 233 7.3 102820 74
2002-03-26 08:58:15 51°22.092 3°7.875 7.3 232 7.3 102820 74
2002-03-26 08:58:20 51°22.102 3°7.903 7.7 233 7.3 102820 74
2002-03-26 08:58:25 51°22.114 3°7.929 7.6 232 7.3 102820 74
2002-03-26 08:58:30 51°22.127 3°7.952 6.9 230 7.3 102820 74
2002-03-26 08:58:35 51°22.141 3°7.974 7.7 234 7.3 102820 74
2002-03-26 08:58:40 51°22.156 3°7.995 7 232 7.3 102820 74
2002-03-26 08:58:45 51°22.171 3°8.016 7.1 234 7.3 102820 74
2002-03-26 08:58:50 51°22.185 3°8.037 7.6 233 7.3 102820 74
2002-03-26 08:58:55 51°22.201 3°8.057 7.3 232 7.3 102820 74
2002-03-26 08:59:00 51°22.217 3°8.076 7.6 232 7.3 102820 74
2002-03-26 08:59:05 51°22.233 3°8.095 7.2 232 7.3 102820 74
2002-03-26 08:59:10 51°22.25 3°8.113 7.4 232 7.3 102820 74
2002-03-26 08:59:15 51°22.266 3°8.131 7.6 232 7.3 102820 74
2002-03-26 08:59:20 51°22.283 3°8.149 7.5 234 7.3 102820 74
2002-03-26 08:59:25 51°22.299 3°8.168 7.2 234 7.3 102820 74
2002-03-26 08:59:30 51°22.315 3°8.187 7.8 235 7.3 102820 74
2002-03-26 08:59:35 51°22.331 3°8.206 8 232 7.3 102820 74
2002-03-26 08:59:40 51°22.348 3°8.225 7.6 236 7.3 102820 74
2002-03-26 08:59:45 51°22.364 3°8.244 7.7 230 7.3 102820 74
2002-03-26 08:59:50 51°22.38 3°8.263 8.2 238 7.3 102820 74
2002-03-26 08:59:55 51°22.397 3°8.282 7.4 231 7.3 102820 74
2002-03-26 09:00:00 51°22.413 3°8.301 7.5 238 7.3 102820 74
2002-03-26 09:00:04 51°22.426 3°8.316 7.6 232 7.3 102820 74
2002-03-26 09:00:09 51°22.442 3°8.336 7.5 240 7.3 102820 74
2002-03-26 09:00:15 51°22.461 3°8.36 7.9 230 7.3 102820 74
2002-03-26 09:00:20 51°22.477 3°8.379 7.9 238 7.3 102820 74
2002-03-26 09:00:25 51°22.492 3°8.4 7.5 237 7.3 102820 74
2002-03-26 09:00:30 51°22.507 3°8.422 7.3 237 7.3 102830 74
2002-03-26 09:00:35 51°22.521 3°8.445 7.5 237 7.3 102830 74
2002-03-26 09:00:40 51°22.535 3°8.468 8 237 7.3 102820 74
2002-03-26 09:00:45 51°22.549 3°8.491 7.3 237 7.3 102820 74
2002-03-26 09:00:50 51°22.563 3°8.514 7.6 235 7.3 102820 74
2002-03-26 09:00:55 51°22.576 3°8.539 7.7 237 7.3 102820 74
2002-03-26 09:01:00 51°22.589 3°8.563 7.8 237 7.4 102830 74
2002-03-26 09:01:05 51°22.601 3°8.589 7.6 236 7.4 102830 74
2002-03-26 09:01:10 51°22.613 3°8.614 7.2 235 7.4 102830 74
2002-03-26 09:01:15 51°22.625 3°8.641 7.4 236 7.4 102830 74
2002-03-26 09:01:20 51°22.637 3°8.667 7.2 236 7.4 102820 74
2002-03-26 09:01:25 51°22.648 3°8.694 7.2 236 7.4 102820 74
2002-03-26 09:01:30 51°22.659 3°8.722 7.5 236 7.4 102830 74
2002-03-26 09:01:35 51°22.669 3°8.75 7.7 234 7.4 102830 74
2002-03-26 09:01:40 51°22.678 3°8.778 7.8 235 7.4 102820 74
2002-03-26 09:01:45 51°22.688 3°8.806 7.2 236 7.4 102820 74
2002-03-26 09:01:50 51°22.698 3°8.835 7.5 235 7.4 102830 74
2002-03-26 09:01:55 51°22.707 3°8.863 7.5 236 7.4 102830 74
2002-03-26 09:02:00 51°22.716 3°8.892 6.9 233 7.4 102830 75
2002-03-26 09:02:05 51°22.725 3°8.92 7.4 237 7.4 102830 75
2002-03-26 09:02:10 51°22.734 3°8.95 7.2 234 7.4 102820 75
2002-03-26 09:02:15 51°22.742 3°8.979 7.5 235 7.4 102820 75
2002-03-26 09:02:20 51°22.749 3°9.01 6.8 233 7.4 102820 75
2002-03-26 09:02:25 51°22.756 3°9.039 7 237 7.4 102820 75
2002-03-26 09:02:30 51°22.762 3°9.07 6.8 235 7.4 102830 75
2002-03-26 09:02:35 51°22.768 3°9.101 6.8 235 7.4 102830 75
2002-03-26 09:02:40 51°22.773 3°9.132 7.3 233 7.4 102830 75
2002-03-26 09:02:45 51°22.778 3°9.164 7.4 237 7.4 102830 75
2002-03-26 09:02:50 51°22.782 3°9.195 7.2 233 7.4 102820 75
2002-03-26 09:02:55 51°22.786 3°9.227 6.9 238 7.4 102820 75
2002-03-26 09:03:00 51°22.789 3°9.258 7 234 7.4 102830 75
2002-03-26 09:03:05 51°22.792 3°9.29 7.2 239 7.4 102830 75
2002-03-26 09:03:10 51°22.795 3°9.321 7 234 7.4 102820 75
2002-03-26 09:03:15 51°22.797 3°9.353 7.1 238 7.4 102820 75
2002-03-26 09:03:20 51°22.799 3°9.385 7.2 232 7.4 102820 75
2002-03-26 09:03:25 51°22.801 3°9.417 7.6 239 7.4 102820 75
2002-03-26 09:03:30 51°22.803 3°9.449 6.7 226 7.4 102830 75
2002-03-26 09:03:35 51°22.805 3°9.48 7.3 232 7.4 102830 75
2002-03-26 09:03:39 51°22.806 3°9.506 7.1 231 7.4 102820 75
2002-03-26 09:03:45 51°22.809 3°9.544 7.4 231 7.4 102820 75
2002-03-26 09:03:49 51°22.81 3°9.569 7.4 238 7.4 102820 75
2002-03-26 09:03:55 51°22.813 3°9.607 7.4 238 7.4 102820 75
2002-03-26 09:04:00 51°22.816 3°9.638 7.2 241 7.4 102830 75
2002-03-26 09:04:05 51°22.817 3°9.669 7.4 241 7.4 102830 75
2002-03-26 09:04:10 51°22.821 3°9.7 6.8 240 7.4 102820 75
2002-03-26 09:04:15 51°22.822 3°9.731 7.2 241 7.4 102820 75
2002-03-26 09:04:20 51°22.826 3°9.762 7.2 236 7.4 102830 75
2002-03-26 09:04:25 51°22.828 3°9.793 6.6 238 7.4 102830 75
2002-03-26 09:04:30 51°22.832 3°9.824 7 233 7.4 102830 75
2002-03-26 09:04:35 51°22.834 3°9.855 6.6 236 7.4 102830 75
2002-03-26 09:04:40 51°22.836 3°9.887 6.7 233 7.4 102830 75
2002-03-26 09:04:45 51°22.839 3°9.918 6.9 238 7.4 102830 75